�������l�o���
Date,Time,MP-1(��Sv/h),MP-2(��Sv/h),MP-3(��Sv/h),MP-4(��Sv/h),MP-5(��Sv/h),MP-6(��Sv/h),MP-7(��Sv/h),MP-8(��Sv/h),����,����(m/s),���J
2018/06/03,00:00,0.858,1.271,0.873,1.590,1.117,0.480,0.837,0.798,��,1.4,��
2018/06/03,00:10,0.858,1.268,0.872,1.588,1.116,0.479,0.836,0.798,��,1.7,��
2018/06/03,00:20,0.858,1.268,0.875,1.591,1.117,0.478,0.837,0.797,��,1.5,��
2018/06/03,00:30,0.858,1.269,0.872,1.591,1.117,0.479,0.836,0.796,��,1.2,��
2018/06/03,00:40,0.858,1.270,0.873,1.590,1.115,0.478,0.836,0.796,��,2.2,��
2018/06/03,00:50,0.856,1.270,0.871,1.589,1.115,0.478,0.836,0.798,��,2.5,��
2018/06/03,01:00,0.856,1.268,0.872,1.592,1.116,0.479,0.836,0.797,��쐼,2.8,��
2018/06/03,01:10,0.857,1.269,0.872,1.591,1.116,0.478,0.837,0.797,��쐼,3.8,��
2018/06/03,01:20,0.856,1.267,0.872,1.589,1.115,0.478,0.838,0.797,�쐼,3.7,��
2018/06/03,01:30,0.856,1.268,0.872,1.592,1.115,0.478,0.837,0.797,��쐼,3.2,��
2018/06/03,01:40,0.856,1.264,0.871,1.588,1.112,0.478,0.836,0.796,�쐼,2.6,��
2018/06/03,01:50,0.857,1.268,0.872,1.589,1.117,0.479,0.836,0.799,�쐼,1.9,��
2018/06/03,02:00,0.855,1.269,0.872,1.590,1.115,0.479,0.837,0.797,�k��,0.6,��
2018/06/03,02:10,0.856,1.268,0.871,1.588,1.117,0.479,0.837,0.796,�k�k��,3.4,��
2018/06/03,02:20,0.858,1.267,0.872,1.590,1.113,0.477,0.837,0.798,�k�k��,4.0,��
2018/06/03,02:30,0.857,1.269,0.872,1.590,1.115,0.477,0.836,0.797,�k��,5.6,��
2018/06/03,02:40,0.856,1.271,0.872,1.589,1.115,0.478,0.837,0.797,�k��,5.3,��
2018/06/03,02:50,0.857,1.267,0.872,1.590,1.114,0.478,0.838,0.795,�k�k��,4.5,��
2018/06/03,03:00,0.856,1.265,0.871,1.589,1.115,0.476,0.836,0.796,�k�k��,4.6,��
2018/06/03,03:10,0.857,1.267,0.873,1.589,1.114,0.476,0.836,0.796,�k�k��,4.2,��
2018/06/03,03:20,0.856,1.268,0.872,1.591,1.115,0.478,0.836,0.796,�k�k��,4.5,��
2018/06/03,03:30,0.857,1.269,0.871,1.589,1.114,0.476,0.837,0.797,�k�k��,4.7,��
2018/06/03,03:40,0.856,1.268,0.873,1.588,1.112,0.478,0.836,0.797,�k�k��,4.8,��
2018/06/03,03:50,0.855,1.265,0.870,1.589,1.115,0.476,0.837,0.797,�k�k��,4.5,��
2018/06/03,04:00,0.855,1.267,0.871,1.590,1.116,0.475,0.836,0.796,�k�k��,4.8,��
2018/06/03,04:10,0.854,1.265,0.871,1.589,1.111,0.476,0.835,0.797,�k�k��,4.9,��
2018/06/03,04:20,0.855,1.265,0.871,1.587,1.115,0.475,0.836,0.797,�k�k��,4.9,��
2018/06/03,04:30,0.855,1.264,0.871,1.589,1.115,0.476,0.838,0.797,�k�k��,4.2,��
2018/06/03,04:40,0.853,1.267,0.869,1.588,1.114,0.476,0.835,0.797,�k�k��,3.7,��
2018/06/03,04:50,0.854,1.266,0.872,1.588,1.113,0.476,0.836,0.796,�k�k��,4.2,��
2018/06/03,05:00,0.855,1.266,0.869,1.586,1.115,0.476,0.836,0.797,�k�k��,4.1,��
2018/06/03,05:10,0.851,1.267,0.870,1.587,1.110,0.475,0.837,0.797,�k�k��,3.8,��
2018/06/03,05:20,0.856,1.264,0.869,1.587,1.113,0.476,0.838,0.797,�k�k��,3.1,��
2018/06/03,05:30,0.856,1.267,0.870,1.589,1.113,0.475,0.837,0.798,�k��,3.2,��
2018/06/03,05:40,0.857,1.265,0.871,1.589,1.114,0.477,0.836,0.797,�k��,2.3,��
2018/06/03,05:50,0.855,1.265,0.872,1.592,1.114,0.477,0.838,0.797,�k��,1.7,��
2018/06/03,06:00,0.857,1.266,0.871,1.590,1.115,0.477,0.838,0.795,�k�k��,1.4,��
2018/06/03,06:10,0.855,1.265,0.871,1.591,1.113,0.479,0.837,0.796,�k,1.2,��
2018/06/03,06:20,0.855,1.268,0.871,1.588,1.113,0.476,0.838,0.797,�k,0.6,��
2018/06/03,06:30,0.857,1.265,0.870,1.590,1.114,0.476,0.837,0.799,�k��,0.9,��
2018/06/03,06:40,0.854,1.262,0.868,1.589,1.115,0.476,0.836,0.797,�k�k��,2.0,��
2018/06/03,06:50,0.855,1.265,0.871,1.587,1.114,0.475,0.838,0.799,�k��,2.0,��
2018/06/03,07:00,0.855,1.265,0.871,1.589,1.113,0.474,0.838,0.797,�k��,2.3,��
2018/06/03,07:10,0.855,1.267,0.869,1.591,1.114,0.472,0.836,0.796,�k��,2.2,��
2018/06/03,07:20,0.855,1.264,0.871,1.586,1.116,0.473,0.836,0.796,�k��,2.0,��
2018/06/03,07:30,0.856,1.265,0.872,1.589,1.115,0.475,0.835,0.798,�k��,2.5,��
2018/06/03,07:40,0.855,1.265,0.872,1.590,1.115,0.474,0.834,0.796,�k��,1.5,��
2018/06/03,07:50,0.851,1.266,0.873,1.589,1.116,0.473,0.834,0.795,�k�k��,1.7,��
2018/06/03,08:00,0.852,1.267,0.872,1.590,1.111,0.474,0.835,0.797,�k�k��,1.9,��
2018/06/03,08:10,0.853,1.265,0.870,1.589,1.113,0.474,0.836,0.796,�k��,2.8,��
2018/06/03,08:20,0.852,1.263,0.870,1.591,1.115,0.474,0.834,0.795,�k��,2.6,��
2018/06/03,08:30,0.857,1.264,0.869,1.592,1.115,0.474,0.833,0.795,�k��,2.3,��
2018/06/03,08:40,0.854,1.265,0.869,1.590,1.114,0.473,0.833,0.794,�k�k��,1.5,��
2018/06/03,08:50,0.853,1.266,0.871,1.589,1.115,0.473,0.835,0.796,�k�k��,1.7,��
2018/06/03,09:00,0.852,1.267,0.869,1.592,1.111,0.474,0.835,0.795,�k�k��,2.3,��
2018/06/03,09:10,0.852,1.266,0.868,1.591,1.113,0.473,0.834,0.796,�k�k��,1.5,��
2018/06/03,09:20,0.853,1.269,0.868,1.590,1.112,0.474,0.835,0.796,���k��,2.3,��
2018/06/03,09:30,0.853,1.270,0.869,1.590,1.116,0.474,0.834,0.794,���k��,1.9,��
2018/06/03,09:40,0.857,1.267,0.870,1.589,1.114,0.474,0.835,0.793,���k��,1.7,��
2018/06/03,09:50,0.855,1.267,0.871,1.590,1.114,0.473,0.835,0.793,���k��,2.3,��
2018/06/03,10:00,0.853,1.268,0.870,1.590,1.114,0.473,0.836,0.794,���k��,2.3,��
2018/06/03,10:10,0.853,1.269,0.871,1.589,1.114,0.474,0.834,0.793,�k��,2.2,��
2018/06/03,10:20,0.854,1.270,0.870,1.590,1.115,0.475,0.836,0.795,���k��,2.2,��
2018/06/03,10:30,0.856,1.269,0.872,1.592,1.115,0.474,0.835,0.794,��,2.0,��
2018/06/03,10:40,0.856,1.270,0.871,1.589,1.116,0.474,0.834,0.794,��,2.5,��
2018/06/03,10:50,0.854,1.269,0.871,1.592,1.117,0.475,0.836,0.795,���k��,2.5,��
2018/06/03,11:00,0.855,1.270,0.872,1.591,1.118,0.475,0.838,0.793,���k��,2.8,��
2018/06/03,11:10,0.856,1.269,0.872,1.589,1.116,0.475,0.834,0.796,��,2.5,��
2018/06/03,11:20,0.854,1.272,0.873,1.590,1.117,0.475,0.835,0.795,��,2.3,��
2018/06/03,11:30,0.855,1.270,0.871,1.591,1.117,0.476,0.836,0.797,���쓌,2.9,��
2018/06/03,11:40,0.857,1.270,0.871,1.590,1.119,0.474,0.834,0.795,��,2.3,��
2018/06/03,11:50,0.857,1.271,0.872,1.587,1.119,0.477,0.836,0.795,���쓌,2.2,��
2018/06/03,12:00,0.857,1.272,0.871,1.592,1.120,0.475,0.835,0.795,�쓌,3.0,��
2018/06/03,12:10,0.859,1.271,0.872,1.592,1.119,0.477,0.834,0.796,��쓌,3.0,��
2018/06/03,12:20,0.859,1.273,0.873,1.593,1.120,0.478,0.836,0.795,�쓌,2.8,��
2018/06/03,12:30,0.857,1.276,0.874,1.591,1.120,0.477,0.837,0.797,�쓌,2.9,��
2018/06/03,12:40,0.858,1.273,0.875,1.593,1.121,0.475,0.835,0.795,��쓌,4.1,��
2018/06/03,12:50,0.858,1.275,0.875,1.593,1.120,0.476,0.836,0.795,��쓌,4.2,��
2018/06/03,13:00,0.858,1.272,0.873,1.594,1.122,0.477,0.834,0.796,�쓌,4.6,��
2018/06/03,13:10,0.861,1.273,0.875,1.595,1.121,0.477,0.835,0.797,��쓌,4.6,��
2018/06/03,13:20,0.857,1.274,0.875,1.591,1.121,0.477,0.837,0.795,��쓌,5.1,��
2018/06/03,13:30,0.856,1.273,0.873,1.592,1.123,0.476,0.837,0.796,��쓌,5.3,��
2018/06/03,13:40,0.859,1.275,0.876,1.592,1.124,0.476,0.837,0.796,��쓌,6.2,��
2018/06/03,13:50,0.860,1.276,0.875,1.595,1.120,0.478,0.836,0.794,��쓌,5.7,��
2018/06/03,14:00,0.859,1.278,0.875,1.595,1.121,0.477,0.835,0.797,��쓌,6.9,��
2018/06/03,14:10,0.858,1.277,0.877,1.595,1.126,0.478,0.837,0.796,��쓌,7.5,��
2018/06/03,14:20,0.861,1.277,0.875,1.596,1.123,0.478,0.838,0.796,��쓌,8.6,��
2018/06/03,14:30,0.859,1.277,0.877,1.594,1.123,0.476,0.838,0.797,��쓌,9.1,��
2018/06/03,14:40,0.861,1.275,0.876,1.594,1.126,0.479,0.837,0.795,��쓌,9.0,��
2018/06/03,14:50,0.861,1.277,0.876,1.596,1.122,0.479,0.837,0.796,��쓌,10.7,��
2018/06/03,15:00,0.861,1.278,0.875,1.598,1.124,0.478,0.836,0.796,��쓌,10.5,��
2018/06/03,15:10,0.862,1.277,0.877,1.597,1.127,0.478,0.838,0.797,��쓌,9.2,��
2018/06/03,15:20,0.860,1.277,0.877,1.594,1.123,0.478,0.838,0.797,��쓌,9.0,��
2018/06/03,15:30,0.862,1.279,0.875,1.598,1.124,0.478,0.838,0.797,��쓌,10.5,��
2018/06/03,15:40,0.860,1.277,0.877,1.598,1.125,0.480,0.837,0.797,��쓌,11.3,��
2018/06/03,15:50,0.861,1.278,0.877,1.599,1.123,0.479,0.837,0.796,��쓌,9.7,��
2018/06/03,16:00,0.860,1.278,0.878,1.598,1.127,0.479,0.835,0.796,��쓌,8.8,��
2018/06/03,16:10,0.861,1.280,0.877,1.597,1.126,0.479,0.837,0.796,��쓌,10.2,��
2018/06/03,16:20,0.861,1.280,0.876,1.597,1.124,0.478,0.838,0.795,��쓌,9.4,��
2018/06/03,16:30,0.860,1.278,0.878,1.596,1.123,0.479,0.839,0.795,��쓌,9.5,��
2018/06/03,16:40,0.860,1.278,0.877,1.597,1.125,0.479,0.838,0.795,��쓌,10.8,��
2018/06/03,16:50,0.862,1.279,0.878,1.597,1.124,0.478,0.836,0.797,��쓌,10.9,��
2018/06/03,17:00,0.860,1.279,0.876,1.599,1.122,0.479,0.836,0.796,��쓌,10.8,��
2018/06/03,17:10,0.861,1.279,0.878,1.598,1.123,0.479,0.835,0.796,��쓌,11.4,��
2018/06/03,17:20,0.861,1.278,0.878,1.599,1.125,0.479,0.835,0.795,��쓌,10.5,��
2018/06/03,17:30,0.861,1.282,0.876,1.598,1.125,0.480,0.838,0.794,��쓌,10.9,��
2018/06/03,17:40,0.860,1.280,0.877,1.599,1.124,0.479,0.836,0.800,��쓌,10.8,��
2018/06/03,17:50,0.859,1.279,0.876,1.599,1.121,0.478,0.837,0.795,��쓌,11.1,��
2018/06/03,18:00,0.861,1.280,0.876,1.597,1.123,0.478,0.838,0.796,��쓌,11.6,��
2018/06/03,18:10,0.858,1.279,0.878,1.598,1.126,0.479,0.836,0.798,��,9.8,��
2018/06/03,18:20,0.858,1.279,0.875,1.599,1.124,0.479,0.837,0.799,��쓌,11.0,��
2018/06/03,18:30,0.860,1.283,0.877,1.598,1.124,0.479,0.836,0.799,��,10.2,��
2018/06/03,18:40,0.859,1.280,0.875,1.601,1.125,0.480,0.836,0.799,��쓌,11.0,��
2018/06/03,18:50,0.860,1.277,0.877,1.599,1.122,0.478,0.837,0.799,��,10.9,��
2018/06/03,19:00,0.858,1.279,0.876,1.599,1.123,0.478,0.837,0.800,��,10.3,��
2018/06/03,19:10,0.860,1.279,0.876,1.599,1.122,0.478,0.838,0.799,��,10.3,��
2018/06/03,19:20,0.860,1.279,0.874,1.600,1.123,0.480,0.836,0.799,��쓌,10.3,��
2018/06/03,19:30,0.860,1.278,0.878,1.602,1.124,0.479,0.839,0.798,��,9.6,��
2018/06/03,19:40,0.861,1.280,0.879,1.601,1.125,0.480,0.838,0.799,��,8.9,��
2018/06/03,19:50,0.860,1.279,0.879,1.603,1.123,0.481,0.839,0.800,��,8.7,��
2018/06/03,20:00,0.862,1.278,0.880,1.604,1.123,0.480,0.837,0.800,��,8.7,��
2018/06/03,20:10,0.861,1.282,0.880,1.602,1.121,0.478,0.840,0.801,��,8.6,��
2018/06/03,20:20,0.862,1.277,0.880,1.601,1.122,0.479,0.838,0.799,��,8.2,��
2018/06/03,20:30,0.863,1.280,0.880,1.602,1.124,0.480,0.842,0.798,��,8.2,��
2018/06/03,20:40,0.862,1.282,0.877,1.606,1.124,0.478,0.839,0.799,��,8.1,��
2018/06/03,20:50,0.862,1.281,0.879,1.602,1.127,0.480,0.840,0.800,��,7.9,��
2018/06/03,21:00,0.865,1.280,0.882,1.602,1.125,0.481,0.841,0.799,��,7.1,��
2018/06/03,21:10,0.863,1.280,0.879,1.601,1.125,0.481,0.839,0.799,��,6.8,��
2018/06/03,21:20,0.863,1.283,0.879,1.603,1.125,0.480,0.840,0.798,��,6.2,��
2018/06/03,21:30,0.864,1.283,0.878,1.600,1.128,0.479,0.839,0.798,��,7.2,��
2018/06/03,21:40,0.863,1.283,0.880,1.602,1.127,0.479,0.840,0.799,��,7.0,��
2018/06/03,21:50,0.864,1.280,0.878,1.603,1.125,0.478,0.838,0.799,��,7.3,��
2018/06/03,22:00,0.863,1.281,0.878,1.603,1.125,0.478,0.838,0.797,��,7.0,��
2018/06/03,22:10,0.862,1.283,0.878,1.602,1.126,0.481,0.839,0.798,��,6.3,��
2018/06/03,22:20,0.865,1.281,0.878,1.602,1.126,0.478,0.840,0.799,��,5.7,��
2018/06/03,22:30,0.862,1.280,0.880,1.601,1.126,0.479,0.840,0.798,��,5.8,��
2018/06/03,22:40,0.864,1.283,0.881,1.602,1.127,0.479,0.837,0.797,��,6.9,��
2018/06/03,22:50,0.864,1.281,0.882,1.602,1.127,0.480,0.840,0.797,��,7.9,��
2018/06/03,23:00,0.860,1.280,0.880,1.602,1.126,0.480,0.838,0.799,��,7.0,��
2018/06/03,23:10,0.861,1.280,0.878,1.601,1.125,0.481,0.838,0.798,��,6.9,��
2018/06/03,23:20,0.863,1.281,0.878,1.601,1.127,0.480,0.837,0.798,��,6.1,��
2018/06/03,23:30,0.863,1.280,0.879,1.599,1.125,0.480,0.838,0.799,��,5.6,��
2018/06/03,23:40,0.864,1.280,0.879,1.599,1.130,0.479,0.840,0.798,��쐼,5.2,��
2018/06/03,23:50,0.862,1.280,0.878,1.601,1.126,0.479,0.838,0.798,��쐼,4.3,��
